小惑星2010 TR19

2010 TR19

English version
Home page
Updated on December 7, 2011

---------------------------------------------------------------------

・ プロフィール

・ 軌道要素

The following orbital elements are taken from MPO202492

Epoch 2010 Oct. 11.0 TT = JDT 2455480.5                 MPC
M 304.70756              (2000.0)            P               Q
n   0.00443775     Peri.   35.73641     -0.59310369     -0.68215957
a  36.6741919      Node    94.76157     +0.60228558     -0.72840960
e   0.6860524      Incl.   25.41256     +0.53430337     +0.06385743
P 222              H    5.4           G   0.15
From 10 observations 2010 Oct. 6-Nov. 2.  E-assumed.

・ 光度変化

        H = 5.4  G = 0.15

---------------------------------------------------------------------

軌道要素はMPCのEphemerides and Orbital Elementsに掲載されたものです。
光度グラフはComet for Windowsで作成したものです。

---------------------------------------------------------------------

Copyright(C) Seiichi Yoshida (comet@aerith.net). All rights reserved.